Weather History for PATK - March, 2013

Change the Weather History Date:

Tuesday, March 26, 2013

  Actual Average Record
Temperature  
Mean Temperature 0 °F -  
Max Temperature 12 °F 37 °F 54 °F (1997)
Min Temperature -13 °F 17 °F -13 °F (2013)
Degree Days  
Heating Degree Days 66    
Moisture  
Dew Point -6 °F    
Average Humidity 64    
Maximum Humidity 91    
Minimum Humidity 28    
Precipitation  
Precipitation 0.00 in - - ()
Sea Level Pressure  
Sea Level Pressure 30.00 in    
Wind  
Wind Speed 3 mph (South)    
Max Wind Speed 7 mph    
Max Gust Speed -    
Visibility 10 miles    
Events      
Averages and records for this station are not official NWS values.
T = Trace of Precipitation, MM = Missing Value Source: NWS Daily Summary

Daily Weather History Graph

Daily Weather History Graph

Search for Another Location

Airport or City:

Trip Planner

Search our weather history database for the weather conditions in past years. The results will help you decide how hot, cold, wet, or windy it might be!

Date:

Astronomy

Mar. 26, 2013 Rise Set
Actual Time 7:40 AM AKDT 8:33 PM AKDT
Civil Twilight 6:54 AM AKDT 9:18 PM AKDT
Nautical Twilight 5:58 AM AKDT 10:15 PM AKDT
Astronomical Twilight 4:53 AM AKDT 11:22 PM AKDT
Moon 8:29 PM AKDT (3/26) 7:05 AM AKDT (3/26)
Length of Visible Light 14h 24m
Length of Day
12h 53m
Full, 100% of the Moon is Illuminated
Mar 26
Full
Mar 27
Full
Apr 2
Last Quarter
Apr 10
New
Apr 18
First Quarter

Hourly Weather History & Observations

Time (AKDT) Temp. Windchill Dew Point Humidity Pressure Visibility Wind Dir Wind Speed Gust Speed Precip Events Conditions
12:53 AM 8.1 °F -3.2 °F -4.0 °F 58% 29.70 in 10.0 mi South 6.9 mph - N/A   Mostly Cloudy
1:53 AM 7.0 °F - -4.0 °F 61% 29.75 in 10.0 mi Calm Calm - N/A   Mostly Cloudy
2:53 AM 6.1 °F -5.6 °F 1.0 °F 80% 29.79 in 10.0 mi South 6.9 mph - N/A   Overcast
3:53 AM 5.0 °F - -0.9 °F 76% 29.83 in 10.0 mi Calm Calm - N/A   Partly Cloudy
4:53 AM 3.9 °F -8.2 °F -4.0 °F 70% 29.85 in 10.0 mi SSE 6.9 mph - N/A   Clear
5:53 AM 3.0 °F -8.0 °F -6.0 °F 66% 29.87 in 10.0 mi SE 5.8 mph - N/A   Overcast
6:53 AM -2.0 °F - -9.0 °F 72% 29.90 in 10.0 mi Calm Calm - N/A   Clear
7:53 AM -11.0 °F - -16.1 °F 78% 29.94 in 10.0 mi Calm Calm - N/A   Clear
8:53 AM -11.9 °F - -17.0 °F 78% 29.96 in 10.0 mi Calm Calm - N/A   Clear
9:53 AM -2.9 °F - -9.0 °F 75% 29.98 in 10.0 mi Calm Calm - N/A   Clear
10:53 AM 1.0 °F - -8.0 °F 66% 30.00 in 10.0 mi Calm Calm - N/A   Clear
11:53 AM 6.1 °F -0.9 °F -9.0 °F 50% 30.02 in 10.0 mi SW 3.5 mph - 0.00 in   Clear
12:53 PM 9.0 °F - -6.0 °F 51% 30.04 in 10.0 mi Calm Calm - N/A   Clear
1:53 PM 10.0 °F 0.4 °F -5.1 °F 51% 30.05 in 10.0 mi Variable 5.8 mph - N/A   Clear
2:53 PM 12.0 °F 4.1 °F -6.0 °F 44% 30.06 in 10.0 mi SSW 4.6 mph - N/A   Clear
3:53 PM 12.9 °F 3.8 °F -5.1 °F 45% 30.08 in 10.0 mi SSW 5.8 mph - N/A   Clear
4:53 PM 12.9 °F 3.8 °F -4.0 °F 47% 30.09 in 10.0 mi SSW 5.8 mph - N/A   Clear
5:53 PM 12.9 °F 6.9 °F -2.9 °F 49% 30.11 in 10.0 mi SSW 3.5 mph - N/A   Clear
6:53 PM 12.9 °F - -2.9 °F 49% 30.12 in 10.0 mi Calm Calm - N/A   Clear
7:53 PM 9.0 °F - -2.0 °F 61% 30.14 in 10.0 mi Calm Calm - N/A   Clear
8:53 PM 3.0 °F - -2.0 °F 80% 30.16 in 10.0 mi Calm Calm - N/A   Clear
9:53 PM -2.0 °F - -6.0 °F 83% 30.18 in 10.0 mi Calm Calm - N/A   Clear
10:53 PM -6.0 °F - -8.0 °F 91% 30.20 in 10.0 mi Calm Calm - N/A   Clear
11:53 PM -9.0 °F - -13.0 °F 83% 30.21 in 10.0 mi Calm Calm - N/A   Clear